Weather History for Tirana, Albania

Change the Weather History Date:

Wednesday, October 23, 2013

  Actual Average Record
Temperature  
Mean Temperature 63 °F -  
Max Temperature 78 °F 63 °F - ()
Min Temperature 48 °F 45 °F - ()
Degree Days  
Heating Degree Days 2    
Growing Degree Days 13 (Base 50)    
Moisture  
Dew Point 54 °F    
Average Humidity 79    
Maximum Humidity 94    
Minimum Humidity 47    
Precipitation  
Precipitation 0.00 in -13.12 in - ()
Sea Level Pressure  
Sea Level Pressure 30.18 in    
Wind  
Wind Speed 2 mph ()    
Max Wind Speed 7 mph    
Max Gust Speed -    
Visibility 3.4 miles    
Events Fog    
T = Trace of Precipitation, MM = Missing Value Source: Averaged Metar Reports

Daily Weather History Graph

Daily Weather History Graph

Search for Another Location

Airport:

Trip Planner

Search our weather history database for the weather conditions in past years. The results will help you decide how hot, cold, wet, or windy it might be!

Date:

Astronomy

Oct. 23, 2013 Rise Set
Actual Time 7:02 AM CEST 5:48 PM CEST
Civil Twilight 6:33 AM CEST 6:16 PM CEST
Nautical Twilight 6:01 AM CEST 6:48 PM CEST
Astronomical Twilight 5:29 AM CEST 7:20 PM CEST
Moon 9:01 PM CEST (10/23) 11:06 AM CEST (10/23)
Length of Visible Light 11h 42m
Length of Day
10h 46m
Waning Gibbous, 81% of the Moon is Illuminated
Oct 23
Waning Gibbous
Oct 27
Last Quarter
Nov 3
New
Nov 10
First Quarter
Nov 17
Full

Hourly Weather History & Observations

Time (CEST) Temp. Dew Point Humidity Pressure Visibility Wind Dir Wind Speed Gust Speed Precip Events Conditions
12:20 AM 53.6 °F 51.8 °F 94% 30.18 in - SSE 2.3 mph - N/A Fog Fog
12:50 AM 53.6 °F 51.8 °F 94% 30.18 in 0.5 mi SSE 2.3 mph - N/A Fog Fog
1:20 AM 51.8 °F 50.0 °F 94% 30.18 in 1.6 mi SE 3.5 mph - N/A   Mist
1:50 AM 50.0 °F 48.2 °F 94% 30.21 in 1.0 mi South 3.5 mph - N/A   Mist
2:20 AM 51.8 °F 50.0 °F 94% 30.18 in 0.7 mi South 3.5 mph - N/A   Mist
2:50 AM 51.8 °F 50.0 °F 94% 30.18 in 1.9 mi SSE 3.5 mph - N/A   Mist
3:20 AM 50.0 °F 48.2 °F 94% 30.18 in - SSE 3.5 mph - N/A   Mist
3:50 AM 51.8 °F 50.0 °F 94% 30.18 in 2.2 mi SSE 2.3 mph - N/A   Mist
4:20 AM 50.0 °F 48.2 °F 94% 30.18 in - South 3.5 mph - N/A Fog Fog
4:50 AM 50.0 °F 48.2 °F 94% 30.18 in 0.6 mi South 3.5 mph - N/A Fog Fog
5:00 AM 50 °F 48 °F 91% 30.19 in 4 mi SSE 2.2 mph - -  
5:20 AM 48.2 °F 46.4 °F 93% 30.18 in - ESE 3.5 mph - N/A   Mist
5:50 AM 50.0 °F 48.2 °F 94% 30.18 in - SSE 2.3 mph - N/A   Mist
6:20 AM 51.8 °F 48.2 °F 88% 30.18 in - South 3.5 mph - N/A   Mist
6:50 AM 50.0 °F 46.4 °F 87% 30.18 in 3.7 mi SSE 2.3 mph - N/A   Unknown
7:20 AM 48.2 °F 46.4 °F 93% 30.18 in 1.9 mi South 4.6 mph - N/A   Mist
7:50 AM 50.0 °F 48.2 °F 94% 30.18 in 4.3 mi SSE 3.5 mph - N/A   Unknown
8:20 AM 53.6 °F 51.8 °F 94% 30.18 in 5.0 mi Variable 2.3 mph - N/A   Unknown
8:50 AM 57.2 °F 53.6 °F 88% 30.18 in - Variable 2.3 mph - N/A   Clear
9:20 AM 60.8 °F 55.4 °F 82% 30.18 in - Variable 2.3 mph - N/A   Clear
9:50 AM 66.2 °F 53.6 °F 64% 30.18 in - Calm Calm - N/A   Clear
10:20 AM 68.0 °F 53.6 °F 60% 30.18 in - Calm Calm - N/A   Clear
10:50 AM 68.0 °F 51.8 °F 56% 30.18 in - Calm Calm - N/A   Clear
11:20 AM 73.4 °F 55.4 °F 53% 30.18 in - Calm Calm - N/A   Clear
11:50 AM 75.2 °F 55.4 °F 50% 30.18 in - Calm Calm - N/A   Clear
12:20 PM 77.0 °F 57.2 °F 50% 30.18 in - Variable 2.3 mph - N/A   Clear
12:50 PM 77.0 °F 57.2 °F 50% 30.18 in - Calm Calm - N/A   Clear
1:20 PM 77.0 °F 57.2 °F 50% 30.15 in - Calm Calm - N/A   Clear
1:50 PM 78.8 °F 57.2 °F 47% 30.15 in - Variable 2.3 mph - N/A   Clear
2:20 PM 78.8 °F 59.0 °F 51% 30.15 in - NW 3.5 mph - N/A   Clear
2:50 PM 78.8 °F 59.0 °F 51% 30.15 in - Variable 2.3 mph - N/A   Clear
3:20 PM 78.8 °F 60.8 °F 54% 30.15 in - Variable 2.3 mph - N/A   Clear
3:50 PM 77.0 °F 60.8 °F 57% 30.15 in - WSW 6.9 mph - N/A   Clear
4:20 PM 73.4 °F 59.0 °F 61% 30.15 in - West 5.8 mph - N/A   Clear
4:50 PM 73.4 °F 60.8 °F 65% 30.15 in - WSW 4.6 mph - N/A   Clear
5:00 PM 72 °F 60 °F 56% 30.16 in 16 mi West 2.2 mph - -  
5:20 PM 71.6 °F 57.2 °F 60% 30.15 in - Calm Calm - N/A   Clear
5:50 PM 68.0 °F 57.2 °F 68% 30.15 in - NW 2.3 mph - N/A   Clear
6:20 PM 64.4 °F 57.2 °F 77% 30.15 in - NW 5.8 mph - N/A   Clear
6:50 PM 64.4 °F 59.0 °F 83% 30.15 in - North 2.3 mph - N/A   Clear
7:20 PM 62.6 °F 59.0 °F 88% 30.18 in - NNE 2.3 mph - N/A   Clear
7:50 PM 60.8 °F 59.0 °F 94% 30.18 in 3.7 mi Calm Calm - N/A   Unknown
8:20 PM 59.0 °F 55.4 °F 88% 30.18 in 3.7 mi Variable 1.2 mph - N/A   Unknown
8:50 PM 59.0 °F 55.4 °F 88% 30.18 in 3.7 mi South 2.3 mph - N/A   Unknown
9:20 PM 57.2 °F 55.4 °F 94% 30.21 in 3.7 mi SE 3.5 mph - N/A   Unknown
9:50 PM 57.2 °F 55.4 °F 94% 30.21 in 3.7 mi SSE 2.3 mph - N/A   Unknown
10:20 PM 57.2 °F 55.4 °F 94% 30.21 in 3.7 mi SSE 3.5 mph - N/A   Unknown
10:50 PM 55.4 °F 53.6 °F 94% 30.21 in 3.7 mi SSE 3.5 mph - N/A   Unknown
11:00 PM 56 °F 54 °F 89% 30.22 in 3 mi SSE 4.5 mph - -  
11:20 PM 57.2 °F 55.4 °F 94% 30.21 in 3.7 mi South 3.5 mph - N/A   Unknown
11:50 PM 57.2 °F 55.4 °F 94% 30.21 in 3.1 mi SE 2.3 mph - N/A   Mist